Home   Weather   San Francisco   Past weeks
Flag for USA

Past Weather in San Francisco, California, USA — Yesterday and Last 2 Weeks

Now
67 °F

Passing clouds.


Feels Like: 67 °F
Forecast: 66 / 57 °F
Wind: 23 mph from West

Location: San Francisco International Airport

Current Time: Oct 17, 2019 at 2:25:43 pm

Latest Report: Oct 17, 2019 at 12:56 pm


Visibility: 10 mi

Pressure: 29.99 "Hg

Humidity: 47%

Dew Point: 46 °F

Location of San FranciscoLocation

Past Weather in San Francisco — Graph

°F

San Francisco Temperature Yesterday

Maximum temperature yesterday: 67 °F (at 1:56 pm)
Minimum temperature yesterday: 52 °F (at 4:56 am)
Average temperature yesterday: 59 °F

High & Low Weather Summary for the Past Weeks

 TemperatureHumidityPressure
High87 °F (Oct 6, 3:56 pm)93% (Oct 15, 2:56 am)30.15 "Hg (Oct 15, 2:56 am)
Low49 °F (Oct 15, 4:56 am)14% (Oct 11, 4:56 pm)29.82 "Hg (Oct 8, 5:56 pm)
Average62 °F57%29.97 "Hg
* Reported Oct 2 12:56 pm — Oct 17 12:56 pm, San Francisco. Weather by CustomWeather, © 2019

Note: Actual official high and low records may vary slightly from our data, if they occured in-between our weather recording intervals... More about our weather records

Advertising

San Francisco Weather History for the Previous 24 Hours

Scroll right to see more
 ConditionsComfort  
Time TempWeatherWind HumidityBarometerVisibility
12:56 pm
Thu, Oct 17
67 °FPassing clouds.23 mph47%29.99 "Hg10 mi
11:56 am65 °FPassing clouds.20 mph52%29.99 "Hg10 mi
10:56 am65 °FPassing clouds.24 mph54%29.99 "Hg10 mi
9:56 am62 °FPassing clouds.22 mph62%29.98 "Hg9 mi
8:56 am59 °FScattered clouds.22 mph75%29.96 "Hg10 mi
6:56 am55 °FPassing clouds.15 mph87%29.94 "Hg10 mi
5:56 am56 °FPassing clouds.9 mph87%29.92 "Hg10 mi
5:19 am56 °FPassing clouds.10 mph90%29.91 "Hg10 mi
4:56 am58 °FPassing clouds.13 mph87%29.91 "Hg10 mi
3:56 am58 °FPartly cloudy.No wind93%29.90 "Hg10 mi
3:18 am60 °FMostly cloudy.5 mph83%29.90 "Hg10 mi
3:04 am60 °FPartly cloudy.6 mph83%29.90 "Hg10 mi
2:56 am60 °FMostly cloudy.6 mph83%29.90 "Hg10 mi
1:56 am61 °FMostly cloudy.9 mph83%29.89 "Hg10 mi
12:56 am61 °FPassing clouds.6 mph83%29.89 "Hg10 mi
11:56 pm
Wed, Oct 16
61 °FPassing clouds.3 mph72%29.89 "Hg10 mi
10:56 pm61 °FMostly cloudy.7 mph72%29.90 "Hg10 mi
9:56 pm61 °FMostly cloudy.12 mph67%29.90 "Hg10 mi
8:56 pm60 °FOvercast.6 mph69%29.90 "Hg10 mi
7:56 pm61 °FOvercast.5 mph67%29.90 "Hg10 mi
6:56 pm59 °FMostly cloudy.8 mph72%29.90 "Hg10 mi
5:56 pm61 °FMostly cloudy.12 mph70%29.90 "Hg10 mi
4:56 pm62 °FLow clouds.15 mph65%29.92 "Hg10 mi
3:56 pm64 °FPartly sunny.16 mph61%29.93 "Hg10 mi
2:56 pm64 °FPartly sunny.16 mph58%29.93 "Hg10 mi
Weather by CustomWeather, © 2019

See weather overview